Regional Weather Roundup
Issued by NWS Sioux Falls, SD

Home | Current Version | Previous Version | Text Only | Print | Product List | Glossary On
Versions: 1 2 3 4 5 6 7 8 9 10 11 12 13 14 15 16 17 18 19 20 21 22 23 24 25 26 27 28 29 30 31 32 33 34 35 36 37 38 39 40 41 42 43 44 45 46 47 48 49 50
000
ASUS43 KFSD 240202
RWRFSD

WEATHER ROUNDUP FOR SE SOUTH DAKOTA/SW MINNESOTA/NW IOWA
NATIONAL WEATHER SERVICE SIOUX FALLS SD
900 PM CDT WED APR 23 2014

NOTE: "FAIR" INDICATES FEW OR NO CLOUDS BELOW 12,000 FEET WITH NO
SIGNIFICANT WEATHER AND OR OBSTRUCTIONS TO VISIBILITY.


SDZ038>040-050-052>070-240300-
SOUTHEAST SOUTH DAKOTA

CITY           SKY/WX    TMP DP  RH WIND       PRES   REMARKS
CHAMBERLAIN      N/A     60  43  53 N23G36    29.56R
HURON          PTCLDY    60  42  51 SE14G29   29.57R
MADISON        FAIR      50  39  66 SE21G28   29.66S
MITCHELL       MOCLDY    59  44  57 SE18      29.57S
SIOUX FALLS    MOCLDY    50  40  68 SE18G29   29.68R
WINNER         FAIR      58  41  53 NW21G31   29.61R
YANKTON        CLOUDY    55  43  62 SE24G30   29.61R
$$

MNZ071-072-080-081-089-090-097-098-240300-
SOUTHWEST MINNESOTA

CITY           SKY/WX    TMP DP  RH WIND       PRES   REMARKS
FAIRMONT       CLOUDY    45  36  70 SE20      29.84S
JACKSON        CLOUDY    45  36  70 SE21G28   29.80F
LUVERNE        CLOUDY    50  37  62 SE22G30   29.71F
MARSHALL       CLOUDY    46  36  66 SE21G28   29.75F
MONTEVIDEO     CLOUDY    43  37  81 SE16      29.82R
PIPESTONE      CLOUDY    46  37  71 SE21G30   29.70F
REDWOOD FALLS  CLOUDY    44  37  76 SE22      29.81F
TRACY          CLOUDY    46  38  74 SE20      29.77F
WINDOM         CLOUDY    45  37  76 SE17G29   29.78F
WORTHINGTON    CLOUDY    45  34  65 SE22      29.77F
$$

IAZ001>003-012>014-020>022-031-032-NEZ013-014-SDZ071-240300-
NORTHWEST IOWA

CITY           SKY/WX    TMP DP  RH WIND       PRES   REMARKS
CHEROKEE       CLOUDY    48  39  72 SE16G24   29.71F
DENISON        CLOUDY    52  43  71 S9        29.73R
ESTHERVILLE    CLOUDY    44  38  79 SE24      29.80S
SHELDON        CLOUDY    46  39  76 SE20G28   29.71S
SIOUX CITY     CLOUDY    53  46  77 E9        29.65R
SPENCER        CLOUDY    47  38  71 SE14G23   29.77R
STORM LAKE     CLOUDY    46  39  76 SE20      29.74S
$$

ABBREVIATIONS USED IN REMARKS
   TC - TEMPERATURE IN CELSIUS
  WCI - WIND CHILL INDEX
   HX - HEAT INDEX
  VSB - VISIBILITY




USA.gov is the U.S. government's official web portal to all federal, state and local government web resources and services.